カタログに戻る

COSMOS 1275 DEB

運用中PO
NORAD 12649·DEBRIS·🇷🇺 Russia

打ち上げ Jun 4, 1981 から Plesetsk Cosmodrome

Loading…

次のパス (今後24時間)

TLE

最新Source: Space-Track

元期: Sep 14, 2026, 14:32 UTC

1 12649U 81053D   26257.60557984  .00000312  00000-0  27677-3 0  9993
2 12649  82.9157 126.6658 0047554 257.7233 130.6182 13.81497822263641

AllMySatでCOSMOS 1275 DEBをリアルタイム追跡

Download on the App Store